owner,sensor,date,latitude,longitude,vertical_datum,wind_speed,wind_to_direction,wind_speed_of_gust,qcFlag 
COMPS,ioos:station:USF.COMPS:FHP:1,2017-03-01T00:00:00Z,28.1530,-82.8010,10.0,2.06,10.68,2.45,'1111122,1111122,1111122' 
COMPS,ioos:station:USF.COMPS:FHP:1,2017-03-01T00:06:00Z,28.1530,-82.8010,10.0,2.03,6.16,2.45,'1111122,1111122,1111122' 
COMPS,ioos:station:USF.COMPS:FHP:1,2017-03-01T00:12:00Z,28.1530,-82.8010,10.0,2.3,3.69,2.74,'1111122,1111122,1111122' 
COMPS,ioos:station:USF.COMPS:FHP:1,2017-03-01T00:18:00Z,28.1530,-82.8010,10.0,1.82,7.17,2.15,'1111122,1111122,1111122' 
COMPS,ioos:station:USF.COMPS:FHP:1,2017-03-01T00:24:00Z,28.1530,-82.8010,10.0,1.25,2.3,1.76,'1111122,1111122,1111122' 
COMPS,ioos:station:USF.COMPS:FHP:1,2017-03-01T00:30:00Z,28.1530,-82.8010,10.0,1.22,357.44,1.86,'1111122,1111122,1111122' 
COMPS,ioos:station:USF.COMPS:FHP:1,2017-03-01T00:36:00Z,28.1530,-82.8010,10.0,1.34,356.36,1.66,'1111122,1111122,1111122' 
COMPS,ioos:station:USF.COMPS:FHP:1,2017-03-01T00:42:00Z,28.1530,-82.8010,10.0,1.08,10.29,1.46,'1111122,1111122,1111122' 
COMPS,ioos:station:USF.COMPS:FHP:1,2017-03-01T00:48:00Z,28.1530,-82.8010,10.0,1.27,30.94,1.66,'1111122,1111122,1111122' 
COMPS,ioos:station:USF.COMPS:FHP:1,2017-03-01T00:54:00Z,28.1530,-82.8010,10.0,1.2,23.19,1.56,'1111122,1111122,1111122' 
COMPS,ioos:station:USF.COMPS:FHP:1,2017-03-01T01:00:00Z,28.1530,-82.8010,10.0,1.16,5.04,1.37,'1111122,1111122,1111122' 
COMPS,ioos:station:USF.COMPS:FHP:1,2017-03-01T01:06:00Z,28.1530,-82.8010,10.0,0.9,9.79,1.27,'1111122,1111122,1111122' 
COMPS,ioos:station:USF.COMPS:FHP:1,2017-03-01T01:12:00Z,28.1530,-82.8010,10.0,1.08,46.8,1.56,'1111122,1111122,1111122' 
COMPS,ioos:station:USF.COMPS:FHP:1,2017-03-01T01:18:00Z,28.1530,-82.8010,10.0,1.6,69.79,2.05,'1111122,1111122,1111122' 
COMPS,ioos:station:USF.COMPS:FHP:1,2017-03-01T01:24:00Z,28.1530,-82.8010,10.0,0.75,90.59,1.27,'1111122,1111122,1111122' 
COMPS,ioos:station:USF.COMPS:FHP:1,2017-03-01T01:30:00Z,28.1530,-82.8010,10.0,0.59,133.88,0.88,'1111122,1111122,1111122' 
COMPS,ioos:station:USF.COMPS:FHP:1,2017-03-01T01:36:00Z,28.1530,-82.8010,10.0,0.66,129.55,1.07,'1111122,1111122,1111122' 
COMPS,ioos:station:USF.COMPS:FHP:1,2017-03-01T01:42:00Z,28.1530,-82.8010,10.0,1.3,103.49,1.86,'1111122,1111122,1111122' 
COMPS,ioos:station:USF.COMPS:FHP:1,2017-03-01T01:48:00Z,28.1530,-82.8010,10.0,0.79,101.83,1.37,'1111122,1111122,1111122' 
COMPS,ioos:station:USF.COMPS:FHP:1,2017-03-01T01:54:00Z,28.1530,-82.8010,10.0,0.53,116.36,1.07,'1111122,1111122,1111122' 
COMPS,ioos:station:USF.COMPS:FHP:1,2017-03-01T02:00:00Z,28.1530,-82.8010,10.0,0.83,111.54,1.37,'1111122,1111122,1111122' 
COMPS,ioos:station:USF.COMPS:FHP:1,2017-03-01T02:06:00Z,28.1530,-82.8010,10.0,0.75,80.43,1.07,'1111122,1111122,1111122' 
COMPS,ioos:station:USF.COMPS:FHP:1,2017-03-01T02:12:00Z,28.1530,-82.8010,10.0,0.4,57.95,0.78,'1111122,1111122,1111122' 
COMPS,ioos:station:USF.COMPS:FHP:1,2017-03-01T02:18:00Z,28.1530,-82.8010,10.0,0.98,54.32,1.66,'1111122,1111122,1111122' 
COMPS,ioos:station:USF.COMPS:FHP:1,2017-03-01T02:24:00Z,28.1530,-82.8010,10.0,1.76,67.54,2.05,'1111122,1111122,1111122' 
COMPS,ioos:station:USF.COMPS:FHP:1,2017-03-01T02:30:00Z,28.1530,-82.8010,10.0,1.35,62.09,1.86,'1111122,1111122,1111122' 
COMPS,ioos:station:USF.COMPS:FHP:1,2017-03-01T02:36:00Z,28.1530,-82.8010,10.0,1.14,65.8,1.56,'1111122,1111122,1111122' 
COMPS,ioos:station:USF.COMPS:FHP:1,2017-03-01T02:42:00Z,28.1530,-82.8010,10.0,1.32,73.58,1.95,'1111122,1111122,1111122' 
COMPS,ioos:station:USF.COMPS:FHP:1,2017-03-01T02:48:00Z,28.1530,-82.8010,10.0,0.86,71.23,1.07,'1111122,1111122,1111122' 
COMPS,ioos:station:USF.COMPS:FHP:1,2017-03-01T02:54:00Z,28.1530,-82.8010,10.0,0.94,83.48,1.37,'1111122,1111122,1111122' 
COMPS,ioos:station:USF.COMPS:FHP:1,2017-03-01T03:00:00Z,28.1530,-82.8010,10.0,1.24,72.47,1.66,'1111122,1111122,1111122' 
COMPS,ioos:station:USF.COMPS:FHP:1,2017-03-01T03:06:00Z,28.1530,-82.8010,10.0,1.62,86.22,2.25,'1111122,1111122,1111122' 
COMPS,ioos:station:USF.COMPS:FHP:1,2017-03-01T03:12:00Z,28.1530,-82.8010,10.0,2.32,98.25,3.03,'1111122,1111122,1111122' 
COMPS,ioos:station:USF.COMPS:FHP:1,2017-03-01T03:18:00Z,28.1530,-82.8010,10.0,2.1,96.38,2.54,'1111122,1111122,1111122' 
COMPS,ioos:station:USF.COMPS:FHP:1,2017-03-01T03:24:00Z,28.1530,-82.8010,10.0,1.87,95.95,2.35,'1111122,1111122,1111122' 
COMPS,ioos:station:USF.COMPS:FHP:1,2017-03-01T03:30:00Z,28.1530,-82.8010,10.0,1.73,107.69,2.25,'1111122,1111122,1111122' 
COMPS,ioos:station:USF.COMPS:FHP:1,2017-03-01T03:36:00Z,28.1530,-82.8010,10.0,1.49,102.02,2.05,'1111122,1111122,1111122' 
COMPS,ioos:station:USF.COMPS:FHP:1,2017-03-01T03:42:00Z,28.1530,-82.8010,10.0,1.66,103.23,2.15,'1111122,1111122,1111122' 
COMPS,ioos:station:USF.COMPS:FHP:1,2017-03-01T03:48:00Z,28.1530,-82.8010,10.0,1.38,110.22,1.86,'1111122,1111122,1111122' 
COMPS,ioos:station:USF.COMPS:FHP:1,2017-03-01T03:54:00Z,28.1530,-82.8010,10.0,1.31,102.05,1.76,'1111122,1111122,1111122' 
COMPS,ioos:station:USF.COMPS:FHP:1,2017-03-01T04:00:00Z,28.1530,-82.8010,10.0,1.3,101.58,1.56,'1111122,1111122,1111122' 
COMPS,ioos:station:USF.COMPS:FHP:1,2017-03-01T04:06:00Z,28.1530,-82.8010,10.0,1.25,98.46,1.66,'1111122,1111122,1111122' 
COMPS,ioos:station:USF.COMPS:FHP:1,2017-03-01T04:12:00Z,28.1530,-82.8010,10.0,1.73,90.79,2.05,'1111122,1111122,1111122' 
COMPS,ioos:station:USF.COMPS:FHP:1,2017-03-01T04:18:00Z,28.1530,-82.8010,10.0,2.06,103.81,2.45,'1111122,1111122,1111122' 
COMPS,ioos:station:USF.COMPS:FHP:1,2017-03-01T04:24:00Z,28.1530,-82.8010,10.0,1.91,113.73,2.35,'1111122,1111122,1111122' 
COMPS,ioos:station:USF.COMPS:FHP:1,2017-03-01T04:30:00Z,28.1530,-82.8010,10.0,1.73,120.83,2.25,'1111122,1111122,1111122' 
COMPS,ioos:station:USF.COMPS:FHP:1,2017-03-01T04:36:00Z,28.1530,-82.8010,10.0,1.98,120.13,2.54,'1111122,1111122,1111122' 
COMPS,ioos:station:USF.COMPS:FHP:1,2017-03-01T04:42:00Z,28.1530,-82.8010,10.0,1.41,120.9,2.05,'1111122,1111122,1111122' 
COMPS,ioos:station:USF.COMPS:FHP:1,2017-03-01T04:48:00Z,28.1530,-82.8010,10.0,1.97,125.0,2.45,'1111122,1111122,1111122' 
COMPS,ioos:station:USF.COMPS:FHP:1,2017-03-01T04:54:00Z,28.1530,-82.8010,10.0,2.26,121.12,3.03,'1111122,1111122,1111122' 
COMPS,ioos:station:USF.COMPS:FHP:1,2017-03-01T05:00:00Z,28.1530,-82.8010,10.0,2.56,120.57,3.13,'1111122,1111122,1111122' 
COMPS,ioos:station:USF.COMPS:FHP:1,2017-03-01T05:06:00Z,28.1530,-82.8010,10.0,2.89,125.31,3.52,'1111122,1111122,1111122' 
COMPS,ioos:station:USF.COMPS:FHP:1,2017-03-01T05:12:00Z,28.1530,-82.8010,10.0,3.25,125.7,3.72,'1111122,1111122,1111122' 
COMPS,ioos:station:USF.COMPS:FHP:1,2017-03-01T05:18:00Z,28.1530,-82.8010,10.0,3.28,128.53,3.72,'1111122,1111122,1111122' 
COMPS,ioos:station:USF.COMPS:FHP:1,2017-03-01T05:24:00Z,28.1530,-82.8010,10.0,2.99,124.11,3.33,'1111122,1111122,1111122' 
COMPS,ioos:station:USF.COMPS:FHP:1,2017-03-01T05:30:00Z,28.1530,-82.8010,10.0,2.85,122.19,3.33,'1111122,1111122,1111122' 
COMPS,ioos:station:USF.COMPS:FHP:1,2017-03-01T05:36:00Z,28.1530,-82.8010,10.0,2.68,119.11,3.13,'1111122,1111122,1111122' 
COMPS,ioos:station:USF.COMPS:FHP:1,2017-03-01T05:42:00Z,28.1530,-82.8010,10.0,2.37,115.93,3.03,'1111122,1111122,1111122' 
COMPS,ioos:station:USF.COMPS:FHP:1,2017-03-01T05:48:00Z,28.1530,-82.8010,10.0,1.69,108.07,2.25,'1111122,1111122,1111122' 
COMPS,ioos:station:USF.COMPS:FHP:1,2017-03-01T05:54:00Z,28.1530,-82.8010,10.0,1.66,110.3,2.35,'1111122,1111122,1111122' 
COMPS,ioos:station:USF.COMPS:FHP:1,2017-03-01T06:00:00Z,28.1530,-82.8010,10.0,1.61,109.05,2.25,'1111122,1111122,1111122' 
COMPS,ioos:station:USF.COMPS:FHP:1,2017-03-01T06:06:00Z,28.1530,-82.8010,10.0,1.58,111.63,2.05,'1111122,1111122,1111122' 
COMPS,ioos:station:USF.COMPS:FHP:1,2017-03-01T06:12:00Z,28.1530,-82.8010,10.0,1.99,106.19,2.54,'1111122,1111122,1111122' 
COMPS,ioos:station:USF.COMPS:FHP:1,2017-03-01T06:18:00Z,28.1530,-82.8010,10.0,2.22,107.64,3.13,'1111122,1111122,1111122' 
COMPS,ioos:station:USF.COMPS:FHP:1,2017-03-01T06:24:00Z,28.1530,-82.8010,10.0,2.37,108.07,3.13,'1111122,1111122,1111122' 
COMPS,ioos:station:USF.COMPS:FHP:1,2017-03-01T06:30:00Z,28.1530,-82.8010,10.0,2.72,109.64,3.23,'1111122,1111122,1111122' 
COMPS,ioos:station:USF.COMPS:FHP:1,2017-03-01T06:36:00Z,28.1530,-82.8010,10.0,2.62,111.97,3.13,'1111122,1111122,1111122' 
COMPS,ioos:station:USF.COMPS:FHP:1,2017-03-01T06:42:00Z,28.1530,-82.8010,10.0,2.43,113.03,3.13,'1111122,1111122,1111122' 
COMPS,ioos:station:USF.COMPS:FHP:1,2017-03-01T06:48:00Z,28.1530,-82.8010,10.0,2.46,112.64,3.03,'1111122,1111122,1111122' 
COMPS,ioos:station:USF.COMPS:FHP:1,2017-03-01T06:54:00Z,28.1530,-82.8010,10.0,2.62,112.82,3.33,'1111122,1111122,1111122' 
COMPS,ioos:station:USF.COMPS:FHP:1,2017-03-01T07:00:00Z,28.1530,-82.8010,10.0,3.0,110.89,3.62,'1111122,1111122,1111122' 
COMPS,ioos:station:USF.COMPS:FHP:1,2017-03-01T07:06:00Z,28.1530,-82.8010,10.0,2.94,114.14,3.42,'1111122,1111122,1111122' 
COMPS,ioos:station:USF.COMPS:FHP:1,2017-03-01T07:12:00Z,28.1530,-82.8010,10.0,3.09,116.73,3.72,'1111122,1111122,1111122' 
COMPS,ioos:station:USF.COMPS:FHP:1,2017-03-01T07:18:00Z,28.1530,-82.8010,10.0,3.12,111.48,4.01,'1111122,1111122,1111122' 
COMPS,ioos:station:USF.COMPS:FHP:1,2017-03-01T07:24:00Z,28.1530,-82.8010,10.0,3.11,114.36,4.01,'1111122,1111122,1111122' 
COMPS,ioos:station:USF.COMPS:FHP:1,2017-03-01T07:30:00Z,28.1530,-82.8010,10.0,3.01,119.08,3.72,'1111122,1111122,1111122' 
COMPS,ioos:station:USF.COMPS:FHP:1,2017-03-01T07:36:00Z,28.1530,-82.8010,10.0,2.99,118.49,3.52,'1111122,1111122,1111122' 
COMPS,ioos:station:USF.COMPS:FHP:1,2017-03-01T07:42:00Z,28.1530,-82.8010,10.0,2.94,115.59,3.52,'1111122,1111122,1111122' 
COMPS,ioos:station:USF.COMPS:FHP:1,2017-03-01T07:48:00Z,28.1530,-82.8010,10.0,2.89,114.18,3.52,'1111122,1111122,1111122' 
COMPS,ioos:station:USF.COMPS:FHP:1,2017-03-01T07:54:00Z,28.1530,-82.8010,10.0,3.04,117.74,3.52,'1111122,1111122,1111122' 
COMPS,ioos:station:USF.COMPS:FHP:1,2017-03-01T08:00:00Z,28.1530,-82.8010,10.0,3.14,121.86,3.82,'1111122,1111122,1111122' 
COMPS,ioos:station:USF.COMPS:FHP:1,2017-03-01T08:06:00Z,28.1530,-82.8010,10.0,3.07,128.69,4.11,'1111122,1111122,1111122' 
COMPS,ioos:station:USF.COMPS:FHP:1,2017-03-01T08:12:00Z,28.1530,-82.8010,10.0,2.28,128.5,2.84,'1111122,1111122,1111122' 
COMPS,ioos:station:USF.COMPS:FHP:1,2017-03-01T08:18:00Z,28.1530,-82.8010,10.0,2.3,129.52,3.23,'1111122,1111122,1111122' 
COMPS,ioos:station:USF.COMPS:FHP:1,2017-03-01T08:24:00Z,28.1530,-82.8010,10.0,1.72,127.49,2.84,'1111122,1111122,1111122' 
COMPS,ioos:station:USF.COMPS:FHP:1,2017-03-01T08:30:00Z,28.1530,-82.8010,10.0,1.84,127.75,2.35,'1111122,1111122,1111122' 
COMPS,ioos:station:USF.COMPS:FHP:1,2017-03-01T08:36:00Z,28.1530,-82.8010,10.0,1.73,124.0,2.45,'1111122,1111122,1111122' 
COMPS,ioos:station:USF.COMPS:FHP:1,2017-03-01T08:42:00Z,28.1530,-82.8010,10.0,1.85,128.02,2.35,'1111122,1111122,1111122' 
COMPS,ioos:station:USF.COMPS:FHP:1,2017-03-01T08:48:00Z,28.1530,-82.8010,10.0,2.26,130.39,2.84,'1111122,1111122,1111122' 
COMPS,ioos:station:USF.COMPS:FHP:1,2017-03-01T08:54:00Z,28.1530,-82.8010,10.0,2.52,137.34,3.13,'1111122,1111122,1111122' 
COMPS,ioos:station:USF.COMPS:FHP:1,2017-03-01T09:00:00Z,28.1530,-82.8010,10.0,2.88,139.33,3.52,'1111122,1111122,1111122' 
COMPS,ioos:station:USF.COMPS:FHP:1,2017-03-01T09:06:00Z,28.1530,-82.8010,10.0,2.76,139.82,3.42,'1111122,1111122,1111122' 
COMPS,ioos:station:USF.COMPS:FHP:1,2017-03-01T09:12:00Z,28.1530,-82.8010,10.0,3.25,142.89,4.6,'1111122,1111122,1111122' 
COMPS,ioos:station:USF.COMPS:FHP:1,2017-03-01T09:18:00Z,28.1530,-82.8010,10.0,3.16,139.9,3.82,'1111122,1111122,1111122' 
COMPS,ioos:station:USF.COMPS:FHP:1,2017-03-01T09:24:00Z,28.1530,-82.8010,10.0,3.67,142.6,4.6,'1111122,1111122,1111122' 
COMPS,ioos:station:USF.COMPS:FHP:1,2017-03-01T09:30:00Z,28.1530,-82.8010,10.0,4.32,146.66,5.09,'1111122,1111122,1111122' 
COMPS,ioos:station:USF.COMPS:FHP:1,2017-03-01T09:36:00Z,28.1530,-82.8010,10.0,4.24,141.83,5.09,'1111122,1111122,1111122' 
COMPS,ioos:station:USF.COMPS:FHP:1,2017-03-01T09:42:00Z,28.1530,-82.8010,10.0,4.85,145.38,6.07,'1111122,1111122,1111122' 
COMPS,ioos:station:USF.COMPS:FHP:1,2017-03-01T09:48:00Z,28.1530,-82.8010,10.0,4.92,145.35,6.07,'1111122,1111122,1111122' 
COMPS,ioos:station:USF.COMPS:FHP:1,2017-03-01T09:54:00Z,28.1530,-82.8010,10.0,4.48,149.1,5.39,'1111122,1111122,1111122' 
COMPS,ioos:station:USF.COMPS:FHP:1,2017-03-01T10:00:00Z,28.1530,-82.8010,10.0,4.5,150.86,5.68,'1111122,1111122,1111122' 
COMPS,ioos:station:USF.COMPS:FHP:1,2017-03-01T10:06:00Z,28.1530,-82.8010,10.0,4.29,153.91,4.99,'1111122,1111122,1111122' 
COMPS,ioos:station:USF.COMPS:FHP:1,2017-03-01T10:12:00Z,28.1530,-82.8010,10.0,4.87,154.51,5.68,'1111122,1111122,1111122' 
COMPS,ioos:station:USF.COMPS:FHP:1,2017-03-01T10:18:00Z,28.1530,-82.8010,10.0,4.15,156.92,5.09,'1111122,1111122,1111122' 
COMPS,ioos:station:USF.COMPS:FHP:1,2017-03-01T10:24:00Z,28.1530,-82.8010,10.0,3.68,154.42,5.39,'1111122,1111122,1111122' 
COMPS,ioos:station:USF.COMPS:FHP:1,2017-03-01T10:30:00Z,28.1530,-82.8010,10.0,3.61,156.79,4.8,'1111122,1111122,1111122' 
COMPS,ioos:station:USF.COMPS:FHP:1,2017-03-01T10:36:00Z,28.1530,-82.8010,10.0,3.43,154.61,4.11,'1111122,1111122,1111122' 
COMPS,ioos:station:USF.COMPS:FHP:1,2017-03-01T10:42:00Z,28.1530,-82.8010,10.0,3.28,152.03,3.82,'1111122,1111122,1111122' 
COMPS,ioos:station:USF.COMPS:FHP:1,2017-03-01T10:48:00Z,28.1530,-82.8010,10.0,3.07,149.74,3.72,'1111122,1111122,1111122' 
COMPS,ioos:station:USF.COMPS:FHP:1,2017-03-01T10:54:00Z,28.1530,-82.8010,10.0,3.06,150.98,3.72,'1111122,1111122,1111122' 
COMPS,ioos:station:USF.COMPS:FHP:1,2017-03-01T11:00:00Z,28.1530,-82.8010,10.0,2.98,154.57,3.72,'1111122,1111122,1111122' 
COMPS,ioos:station:USF.COMPS:FHP:1,2017-03-01T11:06:00Z,28.1530,-82.8010,10.0,3.13,156.63,4.11,'1111122,1111122,1111122' 
COMPS,ioos:station:USF.COMPS:FHP:1,2017-03-01T11:12:00Z,28.1530,-82.8010,10.0,3.2,157.6,4.11,'1111122,1111122,1111122' 
COMPS,ioos:station:USF.COMPS:FHP:1,2017-03-01T11:18:00Z,28.1530,-82.8010,10.0,2.86,156.63,3.62,'1111122,1111122,1111122' 
COMPS,ioos:station:USF.COMPS:FHP:1,2017-03-01T11:24:00Z,28.1530,-82.8010,10.0,3.29,159.51,4.21,'1111122,1111122,1111122' 
COMPS,ioos:station:USF.COMPS:FHP:1,2017-03-01T11:30:00Z,28.1530,-82.8010,10.0,3.27,157.99,4.11,'1111122,1111122,1111122' 
COMPS,ioos:station:USF.COMPS:FHP:1,2017-03-01T11:36:00Z,28.1530,-82.8010,10.0,3.29,156.49,4.11,'1111122,1111122,1111122' 
COMPS,ioos:station:USF.COMPS:FHP:1,2017-03-01T11:42:00Z,28.1530,-82.8010,10.0,3.0,159.8,3.82,'1111122,1111122,1111122' 
COMPS,ioos:station:USF.COMPS:FHP:1,2017-03-01T11:48:00Z,28.1530,-82.8010,10.0,2.84,155.17,3.72,'1111122,1111122,1111122' 
COMPS,ioos:station:USF.COMPS:FHP:1,2017-03-01T11:54:00Z,28.1530,-82.8010,10.0,3.01,154.84,3.72,'1111122,1111122,1111122' 
COMPS,ioos:station:USF.COMPS:FHP:1,2017-03-01T12:00:00Z,28.1530,-82.8010,10.0,3.0,153.9,3.52,'1111122,1111122,1111122' 
COMPS,ioos:station:USF.COMPS:FHP:1,2017-03-01T12:06:00Z,28.1530,-82.8010,10.0,3.1,153.84,3.72,'1111122,1111122,1111122' 
COMPS,ioos:station:USF.COMPS:FHP:1,2017-03-01T12:12:00Z,28.1530,-82.8010,10.0,2.82,156.3,3.42,'1111122,1111122,1111122' 
COMPS,ioos:station:USF.COMPS:FHP:1,2017-03-01T12:18:00Z,28.1530,-82.8010,10.0,3.17,153.86,3.91,'1111122,1111122,1111122' 
COMPS,ioos:station:USF.COMPS:FHP:1,2017-03-01T12:24:00Z,28.1530,-82.8010,10.0,2.94,153.78,3.82,'1111122,1111122,1111122' 
COMPS,ioos:station:USF.COMPS:FHP:1,2017-03-01T12:30:00Z,28.1530,-82.8010,10.0,2.69,158.53,3.33,'1111122,1111122,1111122' 
COMPS,ioos:station:USF.COMPS:FHP:1,2017-03-01T12:36:00Z,28.1530,-82.8010,10.0,2.63,156.38,2.93,'1111122,1111122,1111122' 
COMPS,ioos:station:USF.COMPS:FHP:1,2017-03-01T12:42:00Z,28.1530,-82.8010,10.0,2.59,153.55,3.13,'1111122,1111122,1111122' 
COMPS,ioos:station:USF.COMPS:FHP:1,2017-03-01T12:48:00Z,28.1530,-82.8010,10.0,2.44,157.37,3.23,'1111122,1111122,1111122' 
COMPS,ioos:station:USF.COMPS:FHP:1,2017-03-01T12:54:00Z,28.1530,-82.8010,10.0,2.55,156.1,3.23,'1111122,1111122,1111122' 
COMPS,ioos:station:USF.COMPS:FHP:1,2017-03-01T13:00:00Z,28.1530,-82.8010,10.0,2.65,155.25,3.33,'1111122,1111122,1111122' 
COMPS,ioos:station:USF.COMPS:FHP:1,2017-03-01T13:06:00Z,28.1530,-82.8010,10.0,2.67,155.43,3.23,'1111122,1111122,1111122' 
COMPS,ioos:station:USF.COMPS:FHP:1,2017-03-01T13:12:00Z,28.1530,-82.8010,10.0,2.82,155.91,3.23,'1111122,1111122,1111122' 
COMPS,ioos:station:USF.COMPS:FHP:1,2017-03-01T13:18:00Z,28.1530,-82.8010,10.0,2.61,157.07,3.23,'1111122,1111122,1111122' 
COMPS,ioos:station:USF.COMPS:FHP:1,2017-03-01T13:24:00Z,28.1530,-82.8010,10.0,2.64,156.7,3.13,'1111122,1111122,1111122' 
COMPS,ioos:station:USF.COMPS:FHP:1,2017-03-01T13:30:00Z,28.1530,-82.8010,10.0,2.52,161.35,3.13,'1111122,1111122,1111122' 
COMPS,ioos:station:USF.COMPS:FHP:1,2017-03-01T13:36:00Z,28.1530,-82.8010,10.0,2.52,169.6,2.93,'1111122,1111122,1111122' 
COMPS,ioos:station:USF.COMPS:FHP:1,2017-03-01T13:42:00Z,28.1530,-82.8010,10.0,2.22,171.39,2.64,'1111122,1111122,1111122' 
COMPS,ioos:station:USF.COMPS:FHP:1,2017-03-01T13:48:00Z,28.1530,-82.8010,10.0,2.23,167.42,2.74,'1111122,1111122,1111122' 
COMPS,ioos:station:USF.COMPS:FHP:1,2017-03-01T13:54:00Z,28.1530,-82.8010,10.0,2.39,174.51,2.84,'1111122,1111122,1111122' 
COMPS,ioos:station:USF.COMPS:FHP:1,2017-03-01T14:00:00Z,28.1530,-82.8010,10.0,2.14,183.16,2.54,'1111122,1111122,1111122' 
COMPS,ioos:station:USF.COMPS:FHP:1,2017-03-01T14:06:00Z,28.1530,-82.8010,10.0,2.91,176.98,3.52,'1111122,1111122,1111122' 
COMPS,ioos:station:USF.COMPS:FHP:1,2017-03-01T14:12:00Z,28.1530,-82.8010,10.0,4.66,169.94,5.68,'1111122,1111122,1111122' 
COMPS,ioos:station:USF.COMPS:FHP:1,2017-03-01T14:18:00Z,28.1530,-82.8010,10.0,5.13,173.83,6.27,'1111122,1111122,1111122' 
COMPS,ioos:station:USF.COMPS:FHP:1,2017-03-01T14:24:00Z,28.1530,-82.8010,10.0,4.94,176.75,5.68,'1111122,1111122,1111122' 
COMPS,ioos:station:USF.COMPS:FHP:1,2017-03-01T14:30:00Z,28.1530,-82.8010,10.0,5.06,175.31,6.07,'1111122,1111122,1111122' 
COMPS,ioos:station:USF.COMPS:FHP:1,2017-03-01T14:36:00Z,28.1530,-82.8010,10.0,5.16,177.46,6.27,'1111122,1111122,1111122' 
COMPS,ioos:station:USF.COMPS:FHP:1,2017-03-01T14:42:00Z,28.1530,-82.8010,10.0,5.37,177.36,6.37,'1111122,1111122,1111122' 
COMPS,ioos:station:USF.COMPS:FHP:1,2017-03-01T14:48:00Z,28.1530,-82.8010,10.0,5.0,176.22,6.17,'1111122,1111122,1111122' 
COMPS,ioos:station:USF.COMPS:FHP:1,2017-03-01T14:54:00Z,28.1530,-82.8010,10.0,4.9,172.71,6.07,'1111122,1111122,1111122' 
COMPS,ioos:station:USF.COMPS:FHP:1,2017-03-01T15:00:00Z,28.1530,-82.8010,10.0,4.57,174.65,5.29,'1111122,1111122,1111122' 
COMPS,ioos:station:USF.COMPS:FHP:1,2017-03-01T15:06:00Z,28.1530,-82.8010,10.0,5.28,177.94,6.07,'1111122,1111122,1111122' 
COMPS,ioos:station:USF.COMPS:FHP:1,2017-03-01T15:12:00Z,28.1530,-82.8010,10.0,5.33,181.73,6.07,'1111122,1111122,1111122' 
COMPS,ioos:station:USF.COMPS:FHP:1,2017-03-01T15:18:00Z,28.1530,-82.8010,10.0,5.13,175.83,6.37,'1111122,1111122,1111122' 
COMPS,ioos:station:USF.COMPS:FHP:1,2017-03-01T15:24:00Z,28.1530,-82.8010,10.0,5.47,175.81,6.76,'1111122,1111122,1111122' 
COMPS,ioos:station:USF.COMPS:FHP:1,2017-03-01T15:30:00Z,28.1530,-82.8010,10.0,4.98,174.44,5.87,'1111122,1111122,1111122' 
COMPS,ioos:station:USF.COMPS:FHP:1,2017-03-01T15:36:00Z,28.1530,-82.8010,10.0,5.57,177.81,6.85,'1111122,1111122,1111122' 
COMPS,ioos:station:USF.COMPS:FHP:1,2017-03-01T15:42:00Z,28.1530,-82.8010,10.0,6.11,177.42,7.44,'1111122,1111122,1111122' 
COMPS,ioos:station:USF.COMPS:FHP:1,2017-03-01T15:48:00Z,28.1530,-82.8010,10.0,6.61,176.99,7.74,'1111122,1111122,1111122' 
COMPS,ioos:station:USF.COMPS:FHP:1,2017-03-01T15:54:00Z,28.1530,-82.8010,10.0,5.93,178.09,7.35,'1111122,1111122,1111122' 
COMPS,ioos:station:USF.COMPS:FHP:1,2017-03-01T16:00:00Z,28.1530,-82.8010,10.0,5.92,179.91,6.46,'1111122,1111122,1111122' 
COMPS,ioos:station:USF.COMPS:FHP:1,2017-03-01T16:06:00Z,28.1530,-82.8010,10.0,6.19,180.0,7.25,'1111122,1111122,1111122' 
COMPS,ioos:station:USF.COMPS:FHP:1,2017-03-01T16:12:00Z,28.1530,-82.8010,10.0,6.07,181.08,7.35,'1111122,1111122,1111122' 
COMPS,ioos:station:USF.COMPS:FHP:1,2017-03-01T16:18:00Z,28.1530,-82.8010,10.0,6.19,187.76,7.05,'1111122,1111122,1111122' 
COMPS,ioos:station:USF.COMPS:FHP:1,2017-03-01T16:24:00Z,28.1530,-82.8010,10.0,5.26,187.8,6.17,'1111122,1111122,1111122' 
COMPS,ioos:station:USF.COMPS:FHP:1,2017-03-01T16:30:00Z,28.1530,-82.8010,10.0,5.92,190.02,6.66,'1111122,1111122,1111122' 
COMPS,ioos:station:USF.COMPS:FHP:1,2017-03-01T16:36:00Z,28.1530,-82.8010,10.0,5.15,191.05,5.78,'1111122,1111122,1111122' 
COMPS,ioos:station:USF.COMPS:FHP:1,2017-03-01T16:42:00Z,28.1530,-82.8010,10.0,4.5,198.61,5.39,'1111122,1111122,1111122' 
COMPS,ioos:station:USF.COMPS:FHP:1,2017-03-01T16:48:00Z,28.1530,-82.8010,10.0,3.96,217.85,4.8,'1111122,1111122,1111122' 
COMPS,ioos:station:USF.COMPS:FHP:1,2017-03-01T16:54:00Z,28.1530,-82.8010,10.0,3.58,221.02,4.5,'1111122,1111122,1111122' 
COMPS,ioos:station:USF.COMPS:FHP:1,2017-03-01T17:00:00Z,28.1530,-82.8010,10.0,3.84,227.6,4.9,'1111122,1111122,1111122' 
COMPS,ioos:station:USF.COMPS:FHP:1,2017-03-01T17:06:00Z,28.1530,-82.8010,10.0,3.76,232.82,4.99,'1111122,1111122,1111122' 
COMPS,ioos:station:USF.COMPS:FHP:1,2017-03-01T17:12:00Z,28.1530,-82.8010,10.0,4.05,238.28,5.09,'1111122,1111122,1111122' 
COMPS,ioos:station:USF.COMPS:FHP:1,2017-03-01T17:18:00Z,28.1530,-82.8010,10.0,4.53,234.64,5.58,'1111122,1111122,1111122' 
COMPS,ioos:station:USF.COMPS:FHP:1,2017-03-01T17:24:00Z,28.1530,-82.8010,10.0,5.4,237.85,6.46,'1111122,1111122,1111122' 
COMPS,ioos:station:USF.COMPS:FHP:1,2017-03-01T17:30:00Z,28.1530,-82.8010,10.0,5.16,237.57,6.17,'1111122,1111122,1111122' 
COMPS,ioos:station:USF.COMPS:FHP:1,2017-03-01T17:36:00Z,28.1530,-82.8010,10.0,5.52,235.68,6.37,'1111122,1111122,1111122' 
COMPS,ioos:station:USF.COMPS:FHP:1,2017-03-01T17:42:00Z,28.1530,-82.8010,10.0,4.88,234.42,5.78,'1111122,1111122,1111122' 
COMPS,ioos:station:USF.COMPS:FHP:1,2017-03-01T17:48:00Z,28.1530,-82.8010,10.0,5.46,236.55,6.17,'1111122,1111122,1111122' 
COMPS,ioos:station:USF.COMPS:FHP:1,2017-03-01T17:54:00Z,28.1530,-82.8010,10.0,5.33,237.44,6.17,'1111122,1111122,1111122' 
COMPS,ioos:station:USF.COMPS:FHP:1,2017-03-01T18:00:00Z,28.1530,-82.8010,10.0,5.72,237.28,6.37,'1111122,1111122,1111122' 
COMPS,ioos:station:USF.COMPS:FHP:1,2017-03-01T18:06:00Z,28.1530,-82.8010,10.0,5.68,237.12,6.46,'1111122,1111122,1111122' 
COMPS,ioos:station:USF.COMPS:FHP:1,2017-03-01T18:12:00Z,28.1530,-82.8010,10.0,6.03,235.99,7.05,'1111122,1111122,1111122' 
COMPS,ioos:station:USF.COMPS:FHP:1,2017-03-01T18:18:00Z,28.1530,-82.8010,10.0,6.04,234.71,6.85,'1111122,1111122,1111122' 
COMPS,ioos:station:USF.COMPS:FHP:1,2017-03-01T18:24:00Z,28.1530,-82.8010,10.0,5.75,234.25,6.46,'1111122,1111122,1111122' 
COMPS,ioos:station:USF.COMPS:FHP:1,2017-03-01T18:30:00Z,28.1530,-82.8010,10.0,6.61,232.73,7.83,'1111122,1111122,1111122' 
COMPS,ioos:station:USF.COMPS:FHP:1,2017-03-01T18:36:00Z,28.1530,-82.8010,10.0,5.85,239.18,6.95,'1111122,1111122,1111122' 
COMPS,ioos:station:USF.COMPS:FHP:1,2017-03-01T18:42:00Z,28.1530,-82.8010,10.0,6.59,237.23,7.83,'1111122,1111122,1111122' 
COMPS,ioos:station:USF.COMPS:FHP:1,2017-03-01T18:48:00Z,28.1530,-82.8010,10.0,7.06,234.02,8.33,'1111122,1111122,1111122' 
COMPS,ioos:station:USF.COMPS:FHP:1,2017-03-01T18:54:00Z,28.1530,-82.8010,10.0,6.78,236.27,7.74,'1111122,1111122,1111122' 
COMPS,ioos:station:USF.COMPS:FHP:1,2017-03-01T19:00:00Z,28.1530,-82.8010,10.0,6.69,237.03,7.64,'1111122,1111122,1111122' 
COMPS,ioos:station:USF.COMPS:FHP:1,2017-03-01T19:06:00Z,28.1530,-82.8010,10.0,6.67,236.8,7.54,'1111122,1111122,1111122' 
COMPS,ioos:station:USF.COMPS:FHP:1,2017-03-01T19:12:00Z,28.1530,-82.8010,10.0,6.88,237.67,8.13,'1111122,1111122,1111122' 
COMPS,ioos:station:USF.COMPS:FHP:1,2017-03-01T19:18:00Z,28.1530,-82.8010,10.0,6.93,238.35,7.74,'1111122,1111122,1111122' 
COMPS,ioos:station:USF.COMPS:FHP:1,2017-03-01T19:24:00Z,28.1530,-82.8010,10.0,6.66,240.12,7.74,'1111122,1111122,1111122' 
COMPS,ioos:station:USF.COMPS:FHP:1,2017-03-01T19:30:00Z,28.1530,-82.8010,10.0,6.55,240.79,7.83,'1111122,1111122,1111122' 